Time,TemperatureF,DewpointF,PressureIn,WindDirection,WindDirectionDegrees,WindSpeedMPH,WindSpeedGustMPH,Humidity,HourlyPrecipIn,Conditions,Clouds,dailyrainin,SolarRadiationWatts/m^2,SoftwareType,DateUTC
2013-03-20 00:09:00,64.1,63.0,29.96,WSW,240,0.0,0.0,95,0.00,,,0.00,0,weatherlink.com 1.10,2013-03-20 04:09:00,
2013-03-20 00:24:00,63.9,63.0,29.96,WSW,240,0.0,0.0,96,0.00,,,0.00,0,weatherlink.com 1.10,2013-03-20 04:24:00,
2013-03-20 00:39:00,63.7,63.0,29.96,WSW,240,0.0,0.0,96,0.00,,,0.00,0,weatherlink.com 1.10,2013-03-20 04:39:00,
2013-03-20 00:54:00,63.4,62.0,29.96,WSW,239,0.0,0.0,96,0.00,,,0.00,0,weatherlink.com 1.10,2013-03-20 04:54:00,
2013-03-20 01:09:00,64.0,63.0,29.97,WSW,240,0.0,2.0,97,0.00,,,0.00,0,weatherlink.com 1.10,2013-03-20 05:09:00,
2013-03-20 01:24:00,64.8,64.0,29.97,WSW,240,0.0,0.0,98,0.00,,,0.00,0,weatherlink.com 1.10,2013-03-20 05:24:00,
2013-03-20 01:39:00,64.9,64.0,29.97,WSW,240,0.0,0.0,97,0.00,,,0.00,0,weatherlink.com 1.10,2013-03-20 05:39:00,
2013-03-20 01:54:00,64.6,64.0,29.96,WSW,240,0.0,0.0,97,0.00,,,0.00,0,weatherlink.com 1.10,2013-03-20 05:54:00,
2013-03-20 02:09:00,64.3,64.0,29.96,WSW,240,0.0,0.0,97,0.00,,,0.00,0,weatherlink.com 1.10,2013-03-20 06:09:00,
2013-03-20 02:24:00,63.9,63.0,29.95,WSW,240,0.0,0.0,97,0.00,,,0.00,0,weatherlink.com 1.10,2013-03-20 06:24:00,
2013-03-20 02:39:00,63.5,63.0,29.95,WSW,240,0.0,0.0,97,0.00,,,0.00,0,weatherlink.com 1.10,2013-03-20 06:39:00,
2013-03-20 02:54:00,63.2,62.0,29.94,WSW,240,0.0,0.0,97,0.00,,,0.00,0,weatherlink.com 1.10,2013-03-20 06:54:00,
2013-03-20 03:09:00,63.1,62.0,29.94,WSW,240,0.0,0.0,97,0.00,,,0.00,0,weatherlink.com 1.10,2013-03-20 07:09:00,
2013-03-20 03:24:00,62.8,62.0,29.94,WSW,240,0.0,0.0,97,0.00,,,0.00,0,weatherlink.com 1.10,2013-03-20 07:24:00,
2013-03-20 03:39:00,62.6,62.0,29.93,WSW,240,0.0,0.0,97,0.00,,,0.00,0,weatherlink.com 1.10,2013-03-20 07:39:00,
2013-03-20 03:54:00,62.3,62.0,29.93,WSW,240,0.0,0.0,97,0.00,,,0.00,0,weatherlink.com 1.10,2013-03-20 07:54:00,
2013-03-20 04:09:00,62.0,61.0,29.92,WSW,240,0.0,0.0,97,0.00,,,0.00,0,weatherlink.com 1.10,2013-03-20 08:09:00,
2013-03-20 04:24:00,61.7,61.0,29.92,WSW,240,0.0,0.0,97,0.00,,,0.00,0,weatherlink.com 1.10,2013-03-20 08:24:00,
2013-03-20 04:39:00,61.8,61.0,29.92,WSW,240,0.0,0.0,97,0.00,,,0.00,0,weatherlink.com 1.10,2013-03-20 08:39:00,
2013-03-20 04:54:00,61.4,61.0,29.91,WSW,240,0.0,0.0,97,0.00,,,0.00,0,weatherlink.com 1.10,2013-03-20 08:54:00,
2013-03-20 05:09:00,61.4,61.0,29.91,WSW,240,0.0,0.0,98,0.00,,,0.00,0,weatherlink.com 1.10,2013-03-20 09:09:00,
2013-03-20 05:24:00,61.4,61.0,29.93,WSW,240,0.0,0.0,98,0.00,,,0.00,0,weatherlink.com 1.10,2013-03-20 09:24:00,
2013-03-20 05:39:00,61.2,61.0,29.93,WSW,240,0.0,0.0,98,0.00,,,0.00,0,weatherlink.com 1.10,2013-03-20 09:39:00,
2013-03-20 05:54:00,61.0,61.0,29.93,WSW,240,0.0,0.0,98,0.00,,,0.00,0,weatherlink.com 1.10,2013-03-20 09:54:00,
2013-03-20 06:09:00,60.8,60.0,29.93,WSW,240,0.0,0.0,98,0.00,,,0.00,0,weatherlink.com 1.10,2013-03-20 10:09:00,
2013-03-20 06:24:00,60.8,60.0,29.93,WSW,240,0.0,0.0,98,0.00,,,0.00,0,weatherlink.com 1.10,2013-03-20 10:24:00,
2013-03-20 06:39:00,60.8,60.0,29.94,WSW,240,0.0,0.0,98,0.00,,,0.00,0,weatherlink.com 1.10,2013-03-20 10:39:00,
2013-03-20 06:54:00,60.8,60.0,29.94,WSW,240,0.0,0.0,98,0.00,,,0.00,0,weatherlink.com 1.10,2013-03-20 10:54:00,
2013-03-20 07:09:00,60.8,60.0,29.94,WSW,240,0.0,0.0,98,0.00,,,0.00,0,weatherlink.com 1.10,2013-03-20 11:09:00,
2013-03-20 07:24:00,60.7,60.0,29.94,WSW,240,0.0,0.0,98,0.00,,,0.00,7,weatherlink.com 1.10,2013-03-20 11:24:00,
2013-03-20 07:39:00,60.6,60.0,29.94,WSW,240,0.0,0.0,98,0.00,,,0.00,21,weatherlink.com 1.10,2013-03-20 11:39:00,
2013-03-20 07:55:00,61.3,61.0,29.95,WSW,240,0.0,0.0,98,0.00,,,0.00,19,weatherlink.com 1.10,2013-03-20 11:55:00,
2013-03-20 08:10:00,61.6,61.0,29.95,WSW,240,0.0,0.0,99,0.00,,,0.00,74,weatherlink.com 1.10,2013-03-20 12:10:00,
2013-03-20 08:25:00,62.9,63.0,29.96,WSW,240,0.0,0.0,99,0.00,,,0.00,65,weatherlink.com 1.10,2013-03-20 12:25:00,
2013-03-20 08:40:00,64.9,65.0,29.96,WSW,240,0.0,0.0,99,0.00,,,0.00,74,weatherlink.com 1.10,2013-03-20 12:40:00,
2013-03-20 08:55:00,67.1,67.0,29.96,WSW,240,0.0,1.0,99,0.00,,,0.00,156,weatherlink.com 1.10,2013-03-20 12:55:00,
2013-03-20 09:10:00,68.9,69.0,29.97,WSW,240,0.0,0.0,99,0.00,,,0.00,260,weatherlink.com 1.10,2013-03-20 13:10:00,
2013-03-20 09:25:00,69.8,69.0,29.97,WSW,239,0.0,1.0,98,0.00,,,0.00,315,weatherlink.com 1.10,2013-03-20 13:25:00,
2013-03-20 09:40:00,72.7,69.0,29.98,WSW,239,0.0,1.0,88,0.00,,,0.00,262,weatherlink.com 1.10,2013-03-20 13:40:00,
2013-03-20 09:55:00,74.6,69.0,29.99,South,175,1.0,3.0,82,0.00,,,0.00,288,weatherlink.com 1.10,2013-03-20 13:55:00,
2013-03-20 10:10:00,75.8,69.0,29.98,SW,223,0.0,1.0,79,0.00,,,0.00,336,weatherlink.com 1.10,2013-03-20 14:10:00,
2013-03-20 10:25:00,76.5,68.0,29.98,South,177,1.0,4.0,76,0.00,,,0.00,269,weatherlink.com 1.10,2013-03-20 14:25:00,
2013-03-20 10:40:00,76.3,69.0,29.96,SSE,159,1.0,4.0,77,0.00,,,0.00,200,weatherlink.com 1.10,2013-03-20 14:40:00,
2013-03-20 10:55:00,76.1,68.0,29.96,SSE,149,0.0,4.0,75,0.00,,,0.00,265,weatherlink.com 1.10,2013-03-20 14:55:00,
2013-03-20 11:10:00,76.8,68.0,29.96,SSW,204,0.0,5.0,74,0.00,,,0.00,564,weatherlink.com 1.10,2013-03-20 15:10:00,
2013-03-20 11:25:00,77.4,68.0,29.95,SW,224,1.0,7.0,72,0.00,,,0.00,297,weatherlink.com 1.10,2013-03-20 15:25:00,
2013-03-20 11:40:00,78.0,68.0,29.95,South,190,0.0,4.0,72,0.00,,,0.00,336,weatherlink.com 1.10,2013-03-20 15:40:00,
2013-03-20 11:55:00,79.2,68.0,29.95,WSW,237,4.0,5.0,68,0.00,,,0.00,276,weatherlink.com 1.10,2013-03-20 15:55:00,
2013-03-20 12:10:00,79.4,67.0,29.95,WSW,241,1.0,6.0,66,0.00,,,0.00,861,weatherlink.com 1.10,2013-03-20 16:10:00,
2013-03-20 12:25:00,80.5,68.0,29.95,SSW,207,1.0,5.0,66,0.00,,,0.00,176,weatherlink.com 1.10,2013-03-20 16:25:00,
2013-03-20 12:40:00,80.7,68.0,29.94,SSE,161,1.0,5.0,65,0.00,,,0.00,617,weatherlink.com 1.10,2013-03-20 16:40:00,
2013-03-20 12:55:00,81.1,67.0,29.93,SW,232,2.0,7.0,62,0.00,,,0.00,454,weatherlink.com 1.10,2013-03-20 16:55:00,
2013-03-20 13:10:00,80.5,67.0,29.92,SSW,212,0.0,6.0,64,0.00,,,0.00,323,weatherlink.com 1.10,2013-03-20 17:10:00,
2013-03-20 13:25:00,80.3,67.0,29.90,ESE,114,3.0,7.0,64,0.00,,,0.00,338,weatherlink.com 1.10,2013-03-20 17:25:00,
2013-03-20 13:40:00,80.5,67.0,29.90,SW,226,2.0,4.0,63,0.00,,,0.00,322,weatherlink.com 1.10,2013-03-20 17:40:00,
2013-03-20 13:55:00,80.9,68.0,29.89,SE,130,1.0,4.0,66,0.00,,,0.00,613,weatherlink.com 1.10,2013-03-20 17:55:00,
2013-03-20 14:10:00,82.4,68.0,29.88,SW,231,3.0,4.0,61,0.00,,,0.00,396,weatherlink.com 1.10,2013-03-20 18:10:00,
2013-03-20 14:25:00,82.0,69.0,29.88,SW,233,0.0,5.0,64,0.00,,,0.00,612,weatherlink.com 1.10,2013-03-20 18:25:00,
2013-03-20 14:41:00,82.2,68.0,29.87,WNW,282,3.0,4.0,62,0.00,,,0.00,536,weatherlink.com 1.10,2013-03-20 18:41:00,
2013-03-20 14:56:00,81.6,68.0,29.86,WNW,290,1.0,4.0,63,0.00,,,0.00,306,weatherlink.com 1.10,2013-03-20 18:56:00,
2013-03-20 15:11:00,81.3,66.0,29.86,West,271,0.0,7.0,61,0.00,,,0.00,297,weatherlink.com 1.10,2013-03-20 19:11:00,
2013-03-20 15:26:00,80.9,67.0,29.85,West,279,1.0,4.0,62,0.00,,,0.00,241,weatherlink.com 1.10,2013-03-20 19:26:00,
2013-03-20 15:41:00,80.5,66.0,29.85,NW,321,1.0,6.0,62,0.00,,,0.00,244,weatherlink.com 1.10,2013-03-20 19:41:00,
2013-03-20 16:11:00,80.3,66.0,29.84,West,263,1.0,5.0,61,0.00,,,0.00,323,weatherlink.com 1.10,2013-03-20 20:11:00,
2013-03-20 16:26:00,79.9,63.0,29.84,NNE,31,2.0,7.0,57,0.00,,,0.00,172,weatherlink.com 1.10,2013-03-20 20:26:00,
2013-03-20 17:56:00,78.4,63.0,29.82,WNW,288,2.0,4.0,60,0.00,,,0.00,104,weatherlink.com 1.10,2013-03-20 21:56:00,
2013-03-20 18:11:00,77.9,61.0,29.82,WNW,298,2.0,4.0,57,0.00,,,0.00,79,weatherlink.com 1.10,2013-03-20 22:11:00,
2013-03-20 18:26:00,77.6,61.0,29.82,West,276,1.0,4.0,57,0.00,,,0.00,62,weatherlink.com 1.10,2013-03-20 22:26:00,
2013-03-20 19:26:00,75.4,62.0,29.85,WNW,291,1.0,5.0,63,0.00,,,0.00,0,weatherlink.com 1.10,2013-03-20 23:26:00,
2013-03-20 19:56:00,73.8,60.0,29.87,West,281,1.0,3.0,63,0.00,,,0.00,0,weatherlink.com 1.10,2013-03-20 23:56:00,
2013-03-20 20:11:00,73.3,61.0,29.88,NW,314,3.0,3.0,65,0.00,,,0.00,0,weatherlink.com 1.10,2013-03-21 00:11:00,
2013-03-20 20:26:00,73.0,61.0,29.89,West,273,1.0,3.0,66,0.00,,,0.00,0,weatherlink.com 1.10,2013-03-21 00:26:00,
2013-03-20 20:41:00,72.7,61.0,29.91,West,263,3.0,5.0,67,0.00,,,0.00,0,weatherlink.com 1.10,2013-03-21 00:41:00,
2013-03-20 20:56:00,72.5,60.0,29.92,SSW,197,6.0,9.0,65,0.00,,,0.00,0,weatherlink.com 1.10,2013-03-21 00:56:00,
2013-03-20 21:11:00,71.0,60.0,29.92,WNW,288,3.0,11.0,68,0.00,,,0.00,0,weatherlink.com 1.10,2013-03-21 01:11:00,
2013-03-20 21:26:00,69.1,61.0,29.93,WNW,284,2.0,8.0,76,0.00,,,0.00,0,weatherlink.com 1.10,2013-03-21 01:26:00,
2013-03-20 21:41:00,67.7,62.0,29.93,WSW,257,4.0,4.0,81,0.00,,,0.00,0,weatherlink.com 1.10,2013-03-21 01:41:00,
2013-03-20 21:56:00,67.1,62.0,29.93,WNW,284,2.0,7.0,84,0.00,,,0.00,0,weatherlink.com 1.10,2013-03-21 01:56:00,
2013-03-20 22:11:00,66.8,62.0,29.92,West,265,2.0,6.0,85,0.00,,,0.00,0,weatherlink.com 1.10,2013-03-21 02:11:00,
2013-03-20 22:26:00,66.7,62.0,29.91,West,259,1.0,6.0,86,0.00,,,0.00,0,weatherlink.com 1.10,2013-03-21 02:26:00,
2013-03-20 22:41:00,66.3,62.0,29.90,WNW,290,3.0,7.0,86,0.00,,,0.00,0,weatherlink.com 1.10,2013-03-21 02:41:00,
2013-03-20 22:56:00,65.8,62.0,29.90,West,273,1.0,5.0,88,0.00,,,0.00,0,weatherlink.com 1.10,2013-03-21 02:56:00,
2013-03-20 23:11:00,65.6,62.0,29.89,West,279,1.0,3.0,89,0.00,,,0.00,0,weatherlink.com 1.10,2013-03-21 03:11:00,
2013-03-20 23:26:00,65.2,62.0,29.87,WNW,282,1.0,4.0,89,0.00,,,0.00,0,weatherlink.com 1.10,2013-03-21 03:26:00,
2013-03-20 23:41:00,65.0,62.0,29.88,West,277,0.0,4.0,90,0.00,,,0.00,0,weatherlink.com 1.10,2013-03-21 03:41:00,
2013-03-20 23:56:00,65.0,62.0,29.87,West,277,1.0,5.0,90,0.00,,,0.00,0,weatherlink.com 1.10,2013-03-21 03:56:00,